Tracking 28790 objects as of 19-Apr-2024
HD Live streaming from Space Station
objects crossing your sky now

STARLINK-4612

Track STARLINK-4612 now!
10-day predictions
STARLINK-4612 is classified as:


NORAD ID: 53750
Int'l Code: 2022-107BC
Perigee: 545.9 km
Apogee: 547.9 km
Inclination: 53.2 °
Period: 95.4 minutes
Semi major axis: 6917 km
RCS: Unknown
Launch date: September 5, 2022
Source: United States (US)
Launch site: AIR FORCE EASTERN TEST RANGE (AFETR)
Your satellite tracking list
Your tracking list is empty




NASA's NSSDC Master Catalog

Two Line Element Set (TLE):
1 53750U 22107BC  24109.36023327 -.00001633  00000-0 -84561-4 0  9997
2 53750  53.2152 123.3737 0001430  88.1680 271.9476 15.08829337 89598
Source of the keplerian elements: AFSPC